Temperature
29 26 25 26 26 27 26 26 26 26 27 26 25 24 25 25 25 24 24 24 23 23 23 23 22 22 22 21 21 21 20 20 20 19 19 19 19 19 19 18 18 18 18 18
26 26 27 28 28 28 27 26 26 26 27 26 24 24 25 25 25 25 24 24 23 23 23 23 22 22 22 22 21 21 20 20 20 20 19 19 19 19 19 18 18 18 18 18
26 27 29 29 28 28 27 26 26 26 26 25 25 24 24 25 25 25 24 24 24 23 23 23 22 22 22 22 21 21 21 20 20 20 19 19 19 19 19 18 18 18 18 18
27 28 29 29 28 28 27 28 28 27 24 23 24 22 23 23 24 24 24 24 24 24 23 23 23 22 22 22 22 21 21 21 20 20 20 19 19 19 19 19 18 18 19 19
27 28 29 29 29 29 28 29 28 27 24 23 23 22 22 22 23 23 24 24 24 24 24 23 23 23 23 22 22 21 21 21 20 20 20 19 19 19 19 19 19 18 19 18
27 28 29 29 30 30 29 27 26 23 22 22 23 22 22 22 23 24 24 24 24 24 24 23 23 23 23 22 22 21 21 21 20 20 20 19 19 19 19 19 19 19 19 18
27 28 29 30 29 28 27 24 23 23 22 22 22 23 22 24 24 24 24 24 24 24 24 24 23 23 23 22 22 22 21 21 21 20 20 20 20 19 19 19 19 19 19 19
25 25 27 29 28 27 27 24 23 24 23 22 22 23 23 24 25 26 25 25 25 24 24 24 23 23 23 23 22 22 22 21 21 21 20 20 20 20 19 19 19 19 19 19
25 25 28 29 29 28 28 25 24 22 22 22 22 23 24 24 25 25 25 25 25 24 24 24 24 23 23 23 23 22 22 21 21 21 20 20 20 20 20 19 19 19 19 19
25 25 27 28 29 28 27 25 22 22 22 22 23 23 22 23 24 24 24 24 24 24 24 24 24 24 23 23 23 22 22 22 22 21 21 20 20 20 20 20 19 19 19 19
24 24 25 26 27 27 27 26 22 20 21 21 22 22 24 23 23 23 23 24 24 24 24 24 24 24 24 23 23 23 22 22 21 21 21 20 20 20 20 20 20 19 19 19
23 21 22 24 26 27 27 25 22 23 22 20 21 22 24 23 23 23 24 24 24 24 24 24 24 24 23 23 23 23 22 22 22 21 21 21 20 20 20 20 20 19 19 19
23 21 22 23 23 25 26 25 23 21 20 20 21 23 23 23 23 24 24 23 24 24 24 24 24 23 23 23 23 23 22 22 22 21 21 20 20 20 20 20 20 19 19 19
23 20 21 23 23 24 25 26 25 22 21 21 22 23 22 22 22 22 23 23 24 24 23 23 23 23 23 23 23 22 22 22 21 21 21 20 20 20 20 20 20 20 19 19
21 21 22 22 23 25 25 26 25 24 22 22 22 22 22 22 22 22 23 23 23 23 23 23 23 23 23 22 22 22 22 22 21 21 20 20 20 20 20 20 20 19 19 19
18 20 21 22 24 25 25 26 26 25 24 23 23 23 23 22 23 22 23 23 22 23 23 22 22 22 23 22 22 22 22 21 21 21 21 21 20 20 20 19 19 19 19 19
18 19 19 20 22 24 24 24 26 25 25 24 23 22 22 21 22 22 22 22 22 22 23 22 22 23 22 22 22 22 21 21 21 21 21 20 20 20 20 19 19 19 19 19
18 17 17 18 21 22 22 23 25 25 24 23 23 22 22 22 23 23 23 23 23 23 23 23 22 22 22 22 22 22 21 21 21 21 20 20 20 19 19 19 19 19 18 18
17 18 17 17 19 21 22 24 25 24 23 23 23 22 22 22 22 21 22 23 23 23 23 23 23 22 22 22 22 21 21 21 20 20 20 20 20 20 19 19 19 18 18 18
17 17 17 17 20 20 21 23 25 23 21 22 22 22 22 22 20 20 22 22 22 22 22 22 22 22 22 21 21 21 21 21 20 20 20 20 20 19 19 19 19 18 18 18
18 17 17 17 18 19 21 23 23 22 21 22 22 22 22 21 21 22 22 22 22 22 22 22 21 21 21 21 21 21 20 20 20 20 20 19 19 19 19 18 18 18 18 17
17 16 16 16 17 19 20 21 21 20 21 21 21 22 22 22 22 22 22 22 22 21 21 21 21 21 20 20 20 20 20 20 20 19 19 19 19 18 18 18 18 18 17 17
16 16 15 16 17 18 20 20 21 21 21 21 21 21 21 21 20 21 21 21 21 21 21 21 20 20 20 20 20 20 20 19 19 19 19 18 18 18 18 17 17 17 17 17
16 16 15 16 17 18 19 20 21 21 20 21 21 21 20 20 20 20 20 20 20 20 20 20 20 20 19 19 19 19 19 18 18 18 18 18 18 18 17 17 17 17 17 16
15 15 15 15 15 17 18 19 19 20 20 20 20 20 20 20 19 19 19 20 20 19 19 19 19 19 19 18 18 18 18 18 18 18 18 17 17 17 17 17 16 16 16 16
14 14 14 14 15 15 16 18 19 19 19 19 19 19 19 19 19 19 19 19 19 19 19 19 19 18 18 18 18 18 18 18 18 17 17 17 16 16 16 16 16 16 16 16
Wind_Speed
3 3 3 7 7 9 7 5 4 3 3 4 4 6 9 10 10 10 9 10 11 11 10 10 11 11 11 9 9 8 8 6 5 4 3 3 2 2 2 2 4 5 4 4
4 5 9 7 7 7 6 5 3 2 3 4 4 4 7 9 12 13 13 12 12 11 10 10 10 11 10 10 9 8 8 8 6 5 4 3 3 2 2 2 3 5 5 5
8 9 7 5 4 5 5 7 7 5 2 3 4 1 4 5 6 10 12 12 13 15 15 13 12 11 11 10 10 10 9 8 7 6 4 3 3 2 2 1 1 2 4 4
7 8 6 5 6 5 5 8 9 8 6 1 4 2 5 5 5 10 11 12 13 14 13 13 13 12 12 11 9 9 9 8 7 7 6 5 4 3 3 2 2 1 3 3
7 6 6 6 8 6 6 6 6 6 5 3 2 3 5 4 7 11 12 14 15 14 15 15 14 13 12 11 10 9 8 8 7 7 7 5 4 3 2 2 2 1 1 2
8 6 6 7 5 4 4 5 6 5 5 1 3 3 6 6 11 12 12 14 13 13 13 13 12 11 10 10 10 9 8 7 7 7 7 7 6 5 5 4 3 2 1 1
7 7 6 3 2 3 5 6 3 4 3 4 4 2 7 7 8 11 13 14 13 13 13 13 13 13 12 12 10 9 9 8 8 8 7 7 7 7 6 5 4 4 2 1
5 8 6 4 6 6 4 9 8 5 5 3 2 3 7 5 6 7 8 10 11 11 12 14 15 14 13 13 12 11 10 8 8 8 7 6 6 5 4 5 4 4 3 3
7 7 6 5 4 8 4 3 8 7 4 3 3 4 6 0 3 3 6 9 11 12 13 14 14 13 13 14 13 12 11 8 8 8 7 6 6 6 5 5 4 4 3 3
8 5 6 5 2 1 7 7 6 6 5 3 2 3 4 2 4 4 6 10 11 11 11 12 13 13 12 12 11 11 10 10 8 8 7 7 6 5 6 5 5 4 4 3
5 5 5 3 1 5 1 3 6 5 6 7 4 6 6 8 7 5 4 6 10 11 12 11 11 11 11 11 11 11 10 8 8 8 7 6 6 6 6 5 5 5 4 4
3 5 3 7 7 5 6 6 7 5 3 5 6 6 4 8 7 7 5 4 6 10 10 10 10 9 11 11 11 11 11 10 9 7 7 6 6 6 6 6 5 5 5 4
3 6 1 6 7 4 0 2 5 7 5 5 6 5 2 4 4 4 5 4 5 7 8 8 9 9 10 11 11 10 10 10 8 8 7 6 6 6 6 6 5 5 5 4
4 5 7 9 7 4 3 3 2 6 4 4 6 6 3 4 5 4 4 5 6 7 8 9 9 9 9 10 10 10 10 9 9 8 8 7 7 7 7 6 5 5 5 5
5 3 3 5 5 2 3 4 3 4 7 8 8 8 9 9 9 7 6 6 7 7 7 7 8 8 8 8 8 9 9 9 10 9 9 8 6 5 5 5 5 5 5 5
4 3 2 2 1 1 2 4 4 5 4 6 7 5 6 8 6 6 8 9 7 7 7 7 7 8 8 9 9 8 9 9 9 9 9 8 7 7 6 6 5 5 4 4
2 3 3 2 3 3 4 5 4 3 4 8 7 7 6 7 8 9 9 9 8 7 6 7 7 8 9 9 10 10 9 9 9 9 8 8 7 7 7 7 6 6 5 4
4 3 3 1 2 4 8 5 2 3 2 3 5 8 12 11 8 6 8 9 7 7 6 5 6 6 7 7 8 9 9 9 9 8 8 7 7 7 6 6 6 5 4 4
7 6 3 3 3 4 6 5 0 3 1 1 6 8 8 8 6 2 3 7 9 8 6 5 6 6 6 7 8 9 8 8 8 8 8 7 8 7 6 6 6 5 5 4
4 6 5 4 4 5 6 6 3 5 1 2 5 9 10 8 5 4 5 6 7 6 5 5 5 6 6 6 7 9 8 7 7 8 8 7 7 7 7 7 6 4 4 4
2 2 4 4 4 5 6 6 4 4 5 2 3 6 8 6 7 7 7 6 7 6 6 7 7 6 5 6 8 8 7 6 6 6 6 6 6 6 6 5 4 4 4 3
4 3 4 4 4 6 6 4 1 4 2 2 3 4 5 5 5 7 8 7 7 7 6 7 7 5 4 6 8 7 6 5 5 6 5 5 5 5 5 5 5 4 4 4
3 5 5 6 6 5 2 1 1 3 4 3 3 4 7 6 5 6 6 7 7 7 6 6 7 5 4 4 6 7 4 5 6 6 5 4 4 3 4 5 5 4 4 4
4 2 1 1 1 2 3 2 3 3 4 4 5 6 6 6 5 6 6 6 6 6 6 6 7 6 4 3 4 5 5 5 6 6 5 4 4 4 3 3 4 4 4 4
4 3 1 1 2 4 5 3 3 4 4 5 5 5 5 6 5 5 5 5 5 5 5 5 6 6 5 4 4 4 5 6 6 5 4 4 4 4 3 3 3 4 4 6
3 3 3 5 5 2 4 5 2 2 2 3 5 4 3 4 4 5 5 4 5 6 5 6 5 5 5 5 4 3 4 5 6 5 4 3 3 3 3 3 1 2 1 3
Wind_Direction
298 92 224 226 200 185 177 178 191 217 184 123 157 183 187 183 176 173 173 173 175 176 176 169 164 159 153 149 151 154 153 157 145 132 131 130 141 142 137 148 149 150 148 141
350 260 234 215 198 187 169 179 199 219 162 132 162 200 200 191 188 180 176 178 180 174 170 169 167 163 163 163 162 160 161 163 162 158 155 157 155 159 160 152 147 160 159 159
222 242 236 229 217 193 196 182 191 176 117 80 100 354 228 225 190 183 182 180 179 178 176 175 173 170 167 170 172 170 169 168 168 160 140 122 97 80 92 127 160 172 162 156
247 245 236 230 239 208 234 209 176 163 125 159 139 183 248 220 211 199 191 187 185 183 179 178 176 173 175 177 176 172 170 169 171 161 151 150 153 158 181 173 174 164 154 157
255 244 230 231 236 216 215 181 144 147 125 85 47 123 256 201 207 207 198 193 190 185 181 179 179 176 174 172 173 176 170 172 173 165 158 155 153 164 160 144 148 154 137 145
251 256 219 219 239 206 163 87 64 62 76 52 242 163 245 209 205 196 194 191 187 182 177 175 173 166 166 167 167 169 166 175 173 164 161 161 162 159 151 156 161 171 169 123
290 286 266 232 272 326 101 99 54 10 29 245 253 190 242 231 204 189 189 189 187 183 177 173 171 169 169 168 170 170 169 175 175 168 171 172 171 166 167 171 171 169 166 176
231 271 258 235 193 191 196 143 157 191 203 245 302 239 258 240 208 181 178 179 180 178 177 175 176 175 174 174 172 171 172 175 176 174 178 176 174 170 173 176 171 171 177 190
197 247 269 251 211 163 170 171 167 144 143 124 280 288 309 12 139 138 147 157 175 179 176 177 176 177 176 175 174 172 173 175 181 183 178 177 176 174 175 177 169 169 178 183
176 232 277 271 358 301 165 157 101 120 146 173 250 252 237 217 178 175 170 171 175 173 173 175 177 179 176 175 172 169 172 178 181 182 183 184 179 175 171 166 170 175 182 181
157 179 283 337 207 229 210 118 114 123 150 151 194 255 221 193 178 164 175 178 170 169 174 174 174 176 171 167 168 171 175 176 180 184 182 175 174 173 167 170 176 176 170 167
163 144 236 258 259 221 188 175 144 148 197 157 162 252 249 188 176 163 164 165 165 169 168 165 167 169 170 171 170 173 176 178 182 181 176 177 172 166 170 177 177 169 166 168
128 118 123 324 328 348 45 185 150 135 127 145 156 242 273 176 152 146 150 159 151 157 154 155 160 166 172 174 174 175 175 178 177 170 170 171 171 169 177 183 176 167 166 168
119 117 164 199 220 235 267 278 158 123 146 176 194 197 225 180 165 150 150 168 151 149 157 161 163 167 172 174 173 174 174 175 174 169 172 172 180 180 181 179 175 173 168 167
86 127 183 216 216 211 245 246 202 175 178 175 201 190 199 187 175 167 151 140 134 144 152 162 167 167 166 167 168 170 171 170 171 168 171 179 182 179 178 175 173 171 167 174
48 110 73 324 303 15 324 275 217 195 165 158 161 206 199 166 152 148 146 140 142 154 162 165 169 166 169 168 169 167 167 167 161 166 177 181 176 173 177 181 173 167 171 172
30 93 96 270 304 28 288 253 214 192 172 159 180 206 161 149 162 171 161 150 154 159 164 171 174 173 174 174 169 168 168 163 163 169 176 181 179 181 187 185 174 174 178 175
145 106 129 141 63 214 241 255 188 143 160 156 166 172 167 167 171 166 153 150 156 160 156 172 175 173 172 166 164 165 162 162 166 170 177 178 177 181 180 171 172 178 178 180
156 144 128 126 174 258 293 304 236 135 295 200 151 162 154 131 99 85 154 153 160 162 161 163 163 150 146 153 157 153 157 163 168 175 179 180 173 171 172 173 177 179 176 185
106 122 131 141 162 217 247 290 293 104 328 316 146 158 156 137 142 203 178 153 143 138 138 134 125 119 131 147 144 145 153 160 175 180 180 178 172 170 175 180 180 174 171 185
62 86 149 165 196 248 264 308 29 124 223 274 156 160 160 167 180 171 146 137 131 126 124 120 117 119 133 139 137 139 148 165 174 167 165 165 167 174 175 173 173 165 168 173
177 170 183 156 180 241 297 12 97 212 194 115 108 113 113 116 119 130 132 128 123 119 116 117 117 116 123 132 136 139 155 168 150 143 145 156 164 170 166 163 170 168 167 172
184 190 186 184 205 239 297 159 208 138 109 90 97 105 111 110 114 124 125 124 124 124 123 121 122 116 112 124 136 143 160 145 137 135 144 149 150 152 153 162 173 175 178 185
310 330 102 76 300 311 341 24 58 88 103 100 107 108 108 112 114 117 126 126 128 127 130 125 124 125 128 128 128 142 145 139 132 140 149 149 145 146 149 157 169 180 191 192
277 332 8 301 294 354 349 3 42 49 67 87 88 91 107 116 114 121 127 124 123 122 123 125 131 139 144 136 122 132 142 139 136 145 154 155 156 156 155 155 173 190 206 201
244 213 195 232 241 219 271 301 336 51 73 104 97 77 83 117 125 121 124 127 125 123 120 123 127 134 136 131 127 132 143 146 143 149 158 160 153 151 153 148 104 14 252 220
Height
1479 1487 1493 1490 1488 1490 1495 1502 1506 1501 1495 1500 1505 1507 1506 1506 1508 1510 1512 1514 1516 1518 1520 1521 1523 1524 1526 1527 1529 1530 1532 1533 1534 1534 1535 1536 1537 1537 1538 1539 1540 1540 1540 1541
1486 1489 1480 1478 1481 1486 1492 1501 1502 1498 1493 1499 1505 1507 1504 1504 1504 1506 1508 1511 1513 1515 1518 1520 1522 1523 1525 1526 1528 1530 1531 1532 1533 1534 1535 1536 1537 1538 1538 1539 1540 1540 1541 1541
1488 1481 1474 1477 1482 1488 1491 1497 1499 1500 1496 1498 1507 1514 1509 1505 1505 1506 1506 1508 1509 1511 1514 1517 1520 1522 1523 1525 1527 1528 1530 1531 1533 1534 1535 1536 1537 1538 1539 1539 1540 1540 1541 1541
1480 1473 1474 1478 1481 1483 1493 1483 1486 1493 1506 1517 1513 1531 1515 1508 1506 1505 1505 1505 1507 1510 1512 1514 1517 1519 1521 1524 1526 1528 1530 1531 1532 1533 1535 1536 1536 1537 1538 1539 1540 1540 1540 1540
1479 1471 1474 1477 1475 1476 1482 1477 1483 1491 1504 1517 1516 1527 1519 1507 1508 1503 1502 1502 1504 1506 1509 1512 1514 1517 1520 1522 1524 1527 1529 1530 1531 1533 1534 1535 1536 1537 1538 1538 1539 1540 1540 1540
1471 1466 1467 1468 1467 1469 1472 1480 1488 1499 1512 1529 1520 1526 1522 1507 1500 1498 1498 1499 1501 1504 1507 1510 1513 1516 1519 1521 1523 1526 1528 1529 1531 1532 1533 1534 1535 1536 1537 1538 1538 1538 1539 1540
1477 1469 1463 1462 1470 1471 1475 1497 1521 1527 1536 1533 1516 1519 1515 1493 1489 1490 1492 1495 1498 1501 1504 1507 1511 1514 1516 1519 1522 1524 1526 1528 1529 1531 1533 1534 1535 1536 1536 1537 1537 1538 1538 1539
1489 1487 1467 1461 1467 1476 1478 1491 1519 1533 1537 1531 1517 1519 1502 1486 1484 1485 1488 1492 1496 1499 1502 1504 1507 1511 1514 1516 1519 1522 1524 1526 1528 1529 1531 1533 1534 1535 1536 1537 1537 1538 1538 1539
1486 1484 1462 1458 1457 1464 1476 1486 1488 1510 1520 1531 1525 1511 1495 1485 1485 1485 1486 1490 1493 1496 1500 1503 1505 1508 1511 1514 1517 1519 1522 1525 1527 1528 1530 1532 1533 1534 1535 1536 1537 1537 1538 1538
1470 1480 1466 1458 1457 1459 1465 1474 1494 1510 1528 1535 1525 1516 1509 1493 1488 1486 1486 1487 1490 1493 1497 1500 1503 1506 1509 1512 1515 1518 1521 1523 1525 1527 1529 1530 1532 1533 1534 1535 1536 1536 1537 1538
1464 1478 1474 1466 1468 1470 1470 1476 1489 1504 1510 1528 1534 1520 1487 1486 1484 1485 1485 1486 1487 1490 1494 1497 1501 1504 1507 1511 1513 1516 1519 1522 1524 1526 1527 1529 1530 1531 1533 1534 1534 1535 1536 1537
1463 1476 1485 1473 1461 1457 1462 1471 1485 1502 1510 1513 1520 1513 1477 1479 1480 1481 1483 1485 1486 1488 1491 1495 1499 1502 1505 1508 1511 1514 1517 1520 1522 1524 1526 1527 1529 1530 1531 1532 1533 1534 1535 1536
1461 1478 1493 1489 1479 1467 1466 1467 1473 1486 1500 1511 1518 1506 1477 1478 1479 1480 1482 1484 1485 1488 1491 1494 1497 1500 1502 1505 1508 1511 1515 1518 1520 1522 1524 1526 1527 1528 1529 1530 1531 1532 1533 1534
1455 1474 1485 1493 1487 1475 1472 1467 1468 1481 1498 1504 1500 1493 1484 1479 1478 1480 1482 1483 1484 1486 1489 1492 1495 1497 1500 1502 1505 1508 1511 1515 1518 1520 1522 1523 1525 1526 1527 1529 1530 1530 1531 1532
1457 1472 1471 1471 1467 1465 1466 1465 1465 1473 1480 1489 1487 1484 1479 1476 1476 1478 1480 1482 1484 1485 1489 1491 1493 1495 1498 1500 1503 1506 1509 1512 1515 1517 1519 1521 1523 1524 1525 1526 1528 1529 1529 1530
1462 1470 1471 1471 1463 1463 1465 1462 1462 1465 1469 1474 1476 1477 1468 1471 1474 1476 1478 1480 1482 1484 1487 1490 1493 1494 1496 1498 1501 1504 1507 1509 1512 1515 1517 1518 1520 1521 1522 1524 1525 1526 1527 1528
1467 1472 1480 1483 1469 1467 1476 1464 1460 1462 1462 1466 1475 1472 1467 1471 1473 1474 1475 1477 1479 1482 1484 1487 1490 1492 1494 1496 1499 1502 1504 1507 1509 1512 1513 1515 1517 1518 1519 1521 1522 1523 1524 1526
1467 1474 1483 1485 1479 1489 1473 1454 1453 1456 1459 1458 1459 1460 1462 1465 1468 1471 1472 1474 1477 1479 1482 1485 1487 1490 1492 1494 1497 1500 1502 1504 1506 1508 1510 1512 1513 1515 1515 1517 1519 1520 1522 1523
1459 1470 1481 1489 1489 1481 1465 1454 1453 1458 1463 1456 1458 1459 1462 1465 1469 1473 1473 1474 1476 1478 1481 1483 1485 1487 1490 1493 1495 1497 1499 1501 1503 1505 1508 1509 1511 1512 1513 1515 1516 1517 1519 1520
1458 1464 1478 1485 1487 1488 1470 1453 1448 1453 1468 1457 1455 1458 1462 1465 1473 1473 1472 1473 1475 1478 1480 1482 1484 1486 1488 1491 1493 1495 1497 1498 1500 1502 1505 1507 1508 1510 1511 1512 1514 1515 1516 1517
1468 1472 1478 1482 1484 1476 1458 1451 1449 1469 1470 1458 1456 1456 1458 1461 1463 1466 1469 1471 1473 1476 1479 1481 1483 1485 1487 1489 1491 1493 1495 1496 1498 1500 1503 1504 1506 1507 1509 1510 1511 1512 1513 1514
1471 1476 1478 1481 1484 1478 1454 1452 1458 1461 1455 1456 1457 1457 1458 1460 1462 1465 1467 1469 1471 1474 1477 1479 1481 1484 1486 1488 1489 1491 1492 1494 1497 1498 1500 1502 1503 1505 1506 1507 1509 1510 1510 1511
1466 1466 1468 1469 1470 1459 1454 1454 1455 1455 1455 1456 1457 1457 1458 1461 1463 1464 1466 1468 1471 1473 1476 1478 1480 1482 1485 1486 1488 1489 1491 1493 1494 1496 1497 1499 1501 1502 1503 1504 1505 1506 1507 1508
1461 1458 1461 1463 1460 1456 1455 1454 1454 1455 1455 1456 1457 1459 1460 1461 1463 1465 1466 1468 1470 1472 1474 1476 1479 1480 1482 1485 1487 1488 1490 1491 1492 1493 1495 1496 1497 1498 1500 1501 1502 1503 1504 1505
1463 1460 1461 1462 1459 1457 1456 1455 1455 1454 1455 1456 1458 1459 1461 1461 1462 1464 1466 1467 1468 1471 1473 1476 1477 1479 1481 1482 1484 1486 1488 1489 1490 1491 1492 1493 1494 1496 1497 1498 1499 1500 1501 1502
1460 1460 1462 1462 1459 1459 1458 1457 1456 1455 1455 1455 1457 1459 1461 1461 1462 1463 1465 1467 1468 1470 1472 1474 1476 1478 1479 1481 1482 1484 1486 1487 1487 1489 1490 1491 1492 1493 1494 1495 1496 1497 1498 1499